Location: Unspecified
(0.0000°N, 0.0000°E)
Time: 11:10:25
(UTC+00:00)

SICH 2 - Visible Passes

Search period start: 05 June 2023 00:00
Search period end: 15 June 2023 00:00
Orbit: 674 x 694 km, 97.8° (Epoch: 04 June)

Date Brightness Start Highest point End Pass type
(mag) Time Alt. Az. Time Alt. Az. Time Alt. Az.
05 Jun ? 19:04:29 10° S 19:09:08 68° W 19:13:44 10° NNW visible
06 Jun ? 19:42:43 10° SSW 19:46:12 21° WSW 19:49:42 10° NW visible
07 Jun ? 18:41:35 10° SSE 18:46:10 58° ENE 18:50:43 10° N visible
08 Jun ? 19:18:51 10° S 19:23:15 42° WSW 19:27:37 10° NNW visible
09 Jun ? 19:58:04 10° SW 20:00:19 13° WSW 20:02:33 10° WNW visible
10 Jun ? 18:55:37 10° S 19:00:17 87° W 19:04:54 10° NNW visible
11 Jun ? 19:33:28 10° SSW 19:37:21 27° WSW 19:41:14 10° NW visible
12 Jun ? 18:32:51 10° SSE 18:37:17 45° ENE 18:41:41 10° N visible
13 Jun ? 19:09:50 10° S 19:14:23 54° WSW 19:18:53 10° NNW visible
14 Jun ? 19:48:25 10° SW 19:51:27 17° WSW 19:54:27 10° WNW visible
